Madison, MN

5:35 AM CST on February 24, 2018 (GMT -0600)
Madison-Lac Qui Parle County

Weather History for KDXX - October, 2013

Change the Weather History Date:

Wednesday, October 30, 2013

  Actual Average (KAQP) Record (KAQP)
Temperature  
Mean Temperature 40 °F -  
Max Temperature 44 °F 47 °F 69 °F (2008)
Min Temperature 37 °F 29 °F 15 °F (1996)
Degree Days  
Heating Degree Days 24    
Moisture  
Dew Point 40 °F    
Average Humidity 95    
Maximum Humidity 100    
Minimum Humidity 87    
Precipitation  
Precipitation 0.07 in - - ()
Sea Level Pressure  
Sea Level Pressure 29.89 in    
Wind  
Wind Speed 4 mph (North)    
Max Wind Speed 8 mph    
Max Gust Speed -    
Visibility 2 miles    
Events Fog , Rain    
Averages and records for this station are not official NWS values.
T = Trace of Precipitation, MM = Missing Value Source: NWS Daily Summary

Daily Weather History Graph

Daily Weather History Graph

Search for Another Location

Airport or City:

Trip Planner

Search our weather history database for the weather conditions in past years. The results will help you decide how hot, cold, wet, or windy it might be!

Date:

Astronomy

Oct. 30, 2013 Rise Set
Actual Time 8:00 AM CDT 6:15 PM CDT
Civil Twilight 7:30 AM CDT 6:45 PM CDT
Nautical Twilight 6:55 AM CDT 7:20 PM CDT
Astronomical Twilight 6:21 AM CDT 7:54 PM CDT
Moon 3:40 AM CDT (10/30) 4:10 PM CDT (10/30)
Length of Visible Light 11h 15m
Length of Day
10h 14m
Waning Crescent, 17% of the Moon is Illuminated
Oct 30
Waning Crescent
Nov 3
New
Nov 9
First Quarter
Nov 17
Full
Nov 25
Last Quarter

Hourly Weather History & Observations

Time (CDT) Temp. Windchill Dew Point Humidity Pressure Visibility Wind Dir Wind Speed Gust Speed Precip Events Conditions
12:13 AM 37.4 °F 33.8 °F 37.4 °F 100% 30.07 in 1.8 mi NNE 4.6 mph - N/A   Mist
12:33 AM 37.4 °F 32.8 °F 35.6 °F 93% 30.07 in 1.8 mi NE 5.8 mph - N/A   Mostly Cloudy
12:54 AM 37.4 °F 31.4 °F 37.4 °F 100% 30.06 in 2.0 mi NE 8.1 mph - N/A   Mostly Cloudy
1:13 AM 37.4 °F 32.8 °F 37.4 °F 100% 30.06 in 1.8 mi NE 5.8 mph - N/A   Mostly Cloudy
1:33 AM 37.4 °F 32.8 °F 37.4 °F 100% 30.06 in 1.8 mi NE 5.8 mph - N/A   Mostly Cloudy
1:54 AM 37.4 °F 33.8 °F 37.4 °F 100% 30.05 in 1.8 mi NE 4.6 mph - N/A   Mostly Cloudy
2:13 AM 37.4 °F 32.8 °F 37.4 °F 100% 30.05 in 1.8 mi NE 5.8 mph - N/A   Mostly Cloudy
2:34 AM 37.4 °F 33.8 °F 37.4 °F 100% 30.05 in 1.5 mi NNE 4.6 mph - N/A Rain Light Rain
2:54 AM 37.4 °F 34.9 °F 37.4 °F 100% 30.03 in 1.5 mi NE 3.5 mph - N/A   Overcast
3:13 AM 37.4 °F 33.8 °F 37.4 °F 100% 30.02 in 1.5 mi NE 4.6 mph - N/A Rain Light Rain
3:34 AM 37.4 °F 34.9 °F 37.4 °F 100% 30.03 in 1.5 mi NNE 3.5 mph - 0.02 in Rain Light Rain
3:54 AM 37.4 °F 33.8 °F 37.4 °F 100% 30.02 in 1.5 mi North 4.6 mph - 0.02 in   Overcast
4:13 AM 37.4 °F 34.9 °F 37.4 °F 100% 30.02 in 1.2 mi NNE 3.5 mph - N/A Rain Rain
4:34 AM 37.4 °F - 37.4 °F 100% 30.02 in 1.5 mi Calm Calm - 0.04 in Rain Light Rain
4:53 AM 39.2 °F 37.0 °F 37.4 °F 93% 30.01 in 1.5 mi North 3.5 mph - 0.05 in   Heavy Drizzle
5:14 AM 39.2 °F 35.9 °F 37.4 °F 93% 30.00 in 1.8 mi North 4.6 mph - N/A Rain Light Rain
5:34 AM 39.2 °F 37.0 °F 37.4 °F 93% 30.00 in 2.0 mi NNE 3.5 mph - N/A   Light Drizzle
5:53 AM 39.2 °F 37.0 °F 37.4 °F 93% 29.99 in 2.0 mi ENE 3.5 mph - N/A   Light Drizzle
6:14 AM 39.2 °F 37.0 °F 37.4 °F 93% 29.98 in 2.0 mi NE 3.5 mph - N/A   Overcast
6:33 AM 39.2 °F 37.0 °F 37.4 °F 93% 29.98 in 2.0 mi ENE 3.5 mph - N/A   Overcast
6:54 AM 39.2 °F - 37.4 °F 93% 29.97 in 2.0 mi Calm Calm - N/A   Overcast
7:14 AM 39.2 °F - 37.4 °F 93% 29.96 in 2.0 mi Calm Calm - N/A   Mist
7:33 AM 39.2 °F - 37.4 °F 93% 29.95 in 1.8 mi Calm Calm - N/A   Mist
7:54 AM 39.2 °F - 37.4 °F 93% 29.95 in 1.5 mi Calm Calm - N/A   Overcast
8:14 AM 39.2 °F - 37.4 °F 93% 29.95 in 1.5 mi Calm Calm - N/A   Mist
8:33 AM 39.2 °F - 37.4 °F 93% 29.95 in 1.5 mi Calm Calm - N/A   Overcast
8:54 AM 39.2 °F - 37.4 °F 93% 29.97 in 1.2 mi Calm Calm - N/A   Mist
9:14 AM 39.2 °F - 39.2 °F 100% 29.96 in 0.5 mi Calm Calm - N/A Fog Fog
9:33 AM 39.2 °F - 39.2 °F 100% 29.97 in 0.5 mi Calm Calm - N/A   Drizzle
9:53 AM 39.2 °F - 39.2 °F 100% 29.95 in 1.0 mi Calm Calm - N/A   Drizzle
10:14 AM 41.0 °F 39.0 °F 39.2 °F 93% 29.92 in 1.0 mi ENE 3.5 mph - N/A   Mist
10:33 AM 41.0 °F 38.0 °F 39.2 °F 93% 29.91 in 1.5 mi NE 4.6 mph - N/A   Overcast
10:53 AM 41.0 °F 38.0 °F 39.2 °F 93% 29.90 in 1.2 mi North 4.6 mph - N/A   Overcast
11:13 AM 41.0 °F 38.0 °F 39.2 °F 93% 29.90 in 0.8 mi NNW 4.6 mph - N/A   Overcast
11:33 AM 41.0 °F 37.1 °F 39.2 °F 93% 29.88 in 0.5 mi NNE 5.8 mph - N/A Fog Fog
11:54 AM 41.0 °F 38.0 °F 39.2 °F 93% 29.88 in 0.5 mi North 4.6 mph - N/A Fog Fog
12:13 PM 42.8 °F - 41.0 °F 93% 29.89 in 0.5 mi Calm Calm - N/A Fog Fog
12:33 PM 42.8 °F - 41.0 °F 93% 29.89 in 0.8 mi Calm Calm - N/A   Overcast
12:54 PM 42.8 °F - 41.0 °F 93% 29.90 in 0.8 mi Calm Calm - N/A   Mist
1:13 PM 42.8 °F - 41.0 °F 93% 29.88 in 1.0 mi Calm Calm - N/A   Mist
1:33 PM 42.8 °F - 41.0 °F 93% 29.87 in 1.2 mi Calm Calm - N/A   Drizzle
1:54 PM 42.8 °F - 41.0 °F 93% 29.86 in 1.5 mi Calm Calm - N/A   Drizzle
2:13 PM 42.8 °F 41.1 °F 41.0 °F 93% 29.84 in 1.5 mi North 3.5 mph - N/A   Heavy Drizzle
2:33 PM 42.8 °F - 42.8 °F 100% 29.81 in 2.5 mi Calm Calm - N/A   Light Drizzle
2:54 PM 44.6 °F 41.4 °F 42.8 °F 93% 29.80 in 4.0 mi North 5.8 mph - N/A   Clear
3:13 PM 42.8 °F - 42.8 °F 100% 29.81 in 5.0 mi Calm Calm - N/A   Scattered Clouds
3:33 PM 44.6 °F - 42.8 °F 93% 29.80 in 5.0 mi Calm Calm - N/A   Scattered Clouds
3:54 PM 44.6 °F - 42.8 °F 93% 29.79 in 5.0 mi Calm Calm - N/A   Clear
4:13 PM 44.6 °F 42.2 °F 42.8 °F 93% 29.78 in 5.0 mi North 4.6 mph - N/A   Clear
4:34 PM 44.6 °F 42.2 °F 42.8 °F 93% 29.78 in 5.0 mi NNW 4.6 mph - N/A   Scattered Clouds
4:53 PM 44.6 °F - 42.8 °F 93% 29.78 in 4.0 mi Calm Calm - N/A   Clear
5:13 PM 42.8 °F 40.1 °F 42.8 °F 100% 29.78 in 4.0 mi NW 4.6 mph - N/A   Clear
5:34 PM 42.8 °F - 42.8 °F 100% 29.78 in 3.0 mi Calm Calm - N/A   Clear
5:53 PM 42.8 °F 41.1 °F 42.8 °F 100% 29.77 in 2.0 mi North 3.5 mph - N/A   Light Drizzle
6:13 PM 42.8 °F - 42.8 °F 100% 29.77 in 2.0 mi Calm Calm - N/A   Overcast
6:34 PM 42.8 °F 39.3 °F 42.8 °F 100% 29.78 in 2.5 mi WNW 5.8 mph - N/A   Drizzle
6:53 PM 42.8 °F 39.3 °F 41.0 °F 93% 29.78 in 1.8 mi WNW 5.8 mph - N/A   Mostly Cloudy
7:13 PM 42.8 °F 40.1 °F 41.0 °F 93% 29.78 in 2.5 mi West 4.6 mph - N/A   Mostly Cloudy
7:34 PM 42.8 °F 41.1 °F 41.0 °F 93% 29.77 in 2.5 mi West 3.5 mph - N/A   Light Drizzle
7:53 PM 42.8 °F 41.1 °F 41.0 °F 93% 29.77 in 3.0 mi WNW 3.5 mph - N/A   Scattered Clouds
8:13 PM 42.8 °F 40.1 °F 41.0 °F 93% 29.76 in 2.5 mi West 4.6 mph - N/A   Scattered Clouds
8:34 PM 42.8 °F 40.1 °F 41.0 °F 93% 29.76 in 3.0 mi West 4.6 mph - N/A   Mostly Cloudy
8:53 PM 42.8 °F 40.1 °F 41.0 °F 93% 29.75 in 4.0 mi WNW 4.6 mph - N/A   Mostly Cloudy
9:14 PM 42.8 °F 40.1 °F 41.0 °F 93% 29.74 in 4.0 mi West 4.6 mph - N/A   Clear
9:34 PM 41.0 °F 38.0 °F 39.2 °F 93% 29.74 in 4.0 mi West 4.6 mph - N/A   Scattered Clouds
9:53 PM 41.0 °F 38.0 °F 39.2 °F 93% 29.74 in 4.0 mi WNW 4.6 mph - N/A   Mostly Cloudy
10:14 PM 41.0 °F 39.0 °F 39.2 °F 93% 29.73 in 5.0 mi West 3.5 mph - N/A   Mostly Cloudy
10:33 PM 41.0 °F 37.1 °F 39.2 °F 93% 29.73 in 5.0 mi WNW 5.8 mph - N/A   Mostly Cloudy
10:54 PM 42.8 °F 39.3 °F 39.2 °F 87% 29.73 in 5.0 mi NW 5.8 mph - N/A   Mostly Cloudy
11:14 PM 41.0 °F 38.0 °F 39.2 °F 93% 29.73 in 5.0 mi NW 4.6 mph - N/A   Scattered Clouds
11:33 PM 41.0 °F 37.1 °F 39.2 °F 93% 29.73 in 5.0 mi NW 5.8 mph - N/A   Clear
11:54 PM 41.0 °F 38.0 °F 39.2 °F 93% 29.72 in 5.0 mi WNW 4.6 mph - N/A   Scattered Clouds